Redmond, OR

4:27 AM PST on November 15, 2019 (GMT -0800)
Roberts Field Airport

Weather History for KRDM - October, 2019

Change the Weather History Date:

Friday, October 18, 2019

  Actual Average Record
Temperature  
Mean Temperature 47 °F 47 °F  
Max Temperature 56 °F 63 °F 82 °F (1977)
Min Temperature 38 °F 31 °F 16 °F (1976)
Degree Days  
Heating Degree Days 18 18  
Month to date heating degree days 351 279  
Since 1 July heating degree days 616 678  
Cooling Degree Days 0 0  
Month to date cooling degree days 0 0  
Year to date cooling degree days 293 222  
Moisture  
Dew Point 32 °F    
Average Humidity 59    
Maximum Humidity 79    
Minimum Humidity 38    
Precipitation  
Precipitation 0.00 in 0.02 in 0.22 in (2007)
Month to date precipitation 0.07 0.32  
Year to date precipitation 9.06 6.46  
Sea Level Pressure  
Sea Level Pressure 29.95 in    
Wind  
Wind Speed 6 mph (SW)    
Max Wind Speed 15 mph    
Max Gust Speed 20 mph    
Visibility 10 miles    
Events      
T = Trace of Precipitation, MM = Missing Value Source: NWS Daily Summary

Daily Weather History Graph

Daily Weather History Graph

Search for Another Location

Airport or City:

Astronomy

Oct. 18, 2019 Rise Set
Actual Time 7:23 AM PDT 6:15 PM PDT
Civil Twilight 6:53 AM PDT 6:44 PM PDT
Nautical Twilight 6:20 AM PDT 7:18 PM PDT
Astronomical Twilight 5:46 AM PDT 7:52 PM PDT
Moon 9:27 PM PDT (10/18) 12:09 PM PDT (10/18)
Length of Visible Light 11h 51m
Length of Day
10h 52m
Waning Gibbous, 78% of the Moon is Illuminated
Oct 18
Waning Gibbous
Oct 21
Last Quarter
Oct 27
New
Nov 4
First Quarter
Nov 12
Full

Hourly Weather History & Observations

Time (PDT) Temp. Windchill Dew Point Humidity Pressure Visibility Wind Dir Wind Speed Gust Speed Precip Events Conditions
12:56 AM 45.0 °F 41.2 °F 36.0 °F 71% 29.88 in 10.0 mi NW 6.9 mph - N/A   Mostly Cloudy
1:56 AM 39.9 °F 34.5 °F 33.1 °F 77% 29.91 in 10.0 mi NNE 8.1 mph - N/A   Clear
2:56 AM 44.1 °F 42.5 °F 33.1 °F 65% 29.92 in 10.0 mi ENE 3.5 mph - N/A   Clear
3:56 AM 44.1 °F 39.0 °F 32.0 °F 63% 29.92 in 10.0 mi West 9.2 mph - N/A   Mostly Cloudy
4:56 AM 44.1 °F 39.0 °F 32.0 °F 63% 29.93 in 10.0 mi West 9.2 mph - N/A   Partly Cloudy
5:56 AM 44.1 °F 40.8 °F 30.9 °F 60% 29.95 in 10.0 mi Variable 5.8 mph - N/A   Clear
6:56 AM 43.0 °F 40.3 °F 30.9 °F 62% 29.98 in 10.0 mi WNW 4.6 mph - N/A   Overcast
7:56 AM 42.1 °F 39.2 °F 30.0 °F 62% 29.97 in 10.0 mi North 4.6 mph - N/A   Partly Cloudy
8:56 AM 45.0 °F 42.6 °F 32.0 °F 60% 29.99 in 10.0 mi SE 4.6 mph - N/A   Clear
9:56 AM 48.0 °F - 32.0 °F 54% 30.01 in 10.0 mi NW 4.6 mph - N/A   Clear
10:56 AM 51.1 °F - 33.1 °F 50% 29.99 in 10.0 mi Calm Calm - N/A   Scattered Clouds
11:56 AM 52.0 °F - 32.0 °F 47% 30.00 in 10.0 mi Variable 5.8 mph - N/A   Mostly Cloudy
12:56 PM 52.0 °F - 34.0 °F 50% 29.99 in 10.0 mi Variable 4.6 mph - N/A   Mostly Cloudy
1:56 PM 54.0 °F - 32.0 °F 43% 29.99 in 10.0 mi NNW 6.9 mph - N/A   Clear
2:56 PM 53.1 °F - 30.9 °F 43% 29.97 in 10.0 mi Calm Calm - N/A   Mostly Cloudy
3:56 PM 54.0 °F - 30.0 °F 40% 29.96 in 10.0 mi South 3.5 mph - N/A   Scattered Clouds
4:56 PM 54.0 °F - 28.9 °F 38% 29.96 in 10.0 mi South 11.5 mph - N/A   Clear
5:56 PM 50.0 °F - 30.0 °F 46% 29.94 in 10.0 mi SSW 8.1 mph - N/A   Partly Cloudy
6:56 PM 48.0 °F - 30.9 °F 52% 29.94 in 10.0 mi SSW 9.2 mph - N/A   Mostly Cloudy
7:56 PM 48.0 °F - 32.0 °F 54% 29.94 in 10.0 mi SSW 10.4 mph - N/A   Mostly Cloudy
8:56 PM 44.1 °F 42.5 °F 30.9 °F 60% 29.93 in 10.0 mi SE 3.5 mph - N/A   Partly Cloudy
9:56 PM 43.0 °F 38.2 °F 32.0 °F 65% 29.91 in 10.0 mi South 8.1 mph - N/A   Clear
10:56 PM 43.0 °F 37.2 °F 32.0 °F 65% 29.88 in 10.0 mi South 10.4 mph - N/A   Clear
11:56 PM 43.0 °F 38.2 °F 32.0 °F 65% 29.86 in 10.0 mi South 8.1 mph - N/A   Clear